Weather History for EGVN - December, 2012

Change the Weather History Date:

Friday, December 21, 2012

  Actual Average Record
Temperature  
Mean Temperature 46 °F -  
Max Temperature 50 °F 44 °F - (-1)
Min Temperature 42 °F 34 °F - (-1)
Degree Days  
Heating Degree Days 19    
Moisture  
Dew Point 43 °F    
Average Humidity 90    
Maximum Humidity 100    
Minimum Humidity 69    
Precipitation  
Precipitation 0.00 in - - ()
Sea Level Pressure  
Sea Level Pressure 29.81 in    
Wind  
Wind Speed 5 mph ()    
Max Wind Speed 8 mph    
Max Gust Speed -    
Visibility 5.6 miles    
Events Fog    
Averages and records for this station are not official NWS values.
T = Trace of Precipitation, MM = Missing Value Source: Averaged Metar Reports

Daily Weather History Graph

Daily Weather History Graph

Search for Another Location

Airport or City:

Trip Planner

Search our weather history database for the weather conditions in past years. The results will help you decide how hot, cold, wet, or windy it might be!

Date:

Astronomy

Dec. 21, 2012 Rise Set
Actual Time 8:11 AM GMT 3:58 PM GMT
Civil Twilight 7:30 AM GMT 4:38 PM GMT
Nautical Twilight 6:46 AM GMT 5:22 PM GMT
Astronomical Twilight 6:05 AM GMT 6:03 PM GMT
Moon 12:08 PM GMT (12/21) 1:09 AM GMT (12/21)
Length of Visible Light 9h 08m
Length of Day
7h 47m
Waxing Gibbous, 62% of the Moon is Illuminated
Dec 21
Waxing Gibbous
Dec 28
Full
Jan 5
Last Quarter
Jan 11
New
Jan 18
First Quarter

Hourly Weather History & Observations

Time (GMT) Temp. Windchill Dew Point Humidity Pressure Visibility Wind Dir Wind Speed Gust Speed Precip Events Conditions
12:50 AM 46.4 °F 42.9 °F 44.6 °F 93% 29.62 in 4.3 mi WSW 6.9 mph - N/A   Haze
1:50 AM 46.4 °F 44.3 °F 44.6 °F 93% 29.62 in 4.3 mi WSW 4.6 mph - N/A   Scattered Clouds
2:50 AM 46 °F - 45 °F 93% 29.66 in 4 mi WSW 6.9 mph - -   Mist
2:50 AM 46.4 °F 42.9 °F 44.6 °F 93% 29.65 in 4.3 mi WSW 6.9 mph - N/A   Scattered Clouds
3:50 AM 44.6 °F 42.2 °F 44.6 °F 100% 29.65 in 4.3 mi WSW 4.6 mph - N/A   Mostly Cloudy
4:50 AM 44.6 °F 40.7 °F 42.8 °F 93% 29.68 in 4.3 mi WSW 6.9 mph - N/A   Mostly Cloudy
5:50 AM 44 °F - 43 °F 95% 29.70 in 1 mi WSW 3.5 mph - - Fog Light Fog
5:50 AM 44.6 °F 43.1 °F 42.8 °F 93% 29.68 in 4.3 mi WSW 3.5 mph - N/A Fog Scattered Clouds
6:50 AM 44.6 °F 41.4 °F 42.8 °F 93% 29.71 in 2.8 mi WSW 5.8 mph - N/A   Mostly Cloudy
7:50 AM 44.6 °F 40.7 °F 42.8 °F 93% 29.71 in 1.9 mi WSW 6.9 mph - N/A   Overcast
8:50 AM 44 °F - 43 °F 95% 29.78 in 0 mi WSW 3.5 mph - - Fog Partial Fog
8:50 AM 42.8 °F 41.1 °F 42.8 °F 100% 29.77 in 0.3 mi WSW 3.5 mph - N/A Fog Fog
9:50 AM 44.6 °F 41.4 °F 42.8 °F 93% 29.80 in 2.8 mi West 5.8 mph - N/A   Mostly Cloudy
10:50 AM 46.4 °F 42.4 °F 42.8 °F 87% 29.83 in 6.2 mi West 8.1 mph - N/A   Mostly Cloudy
11:50 AM 47 °F - 43 °F 82% 29.85 in 16 mi WSW 5.8 mph - -   Partly Cloudy
11:50 AM 46.4 °F 43.5 °F 42.8 °F 87% 29.83 in 6.2 mi WSW 5.8 mph - N/A   Mostly Cloudy
12:50 PM 50.0 °F - 41.0 °F 71% 29.83 in 6.2 mi WSW 5.8 mph - N/A   Mostly Cloudy
1:50 PM 50.0 °F - 42.8 °F 76% 29.86 in 6.2 mi WSW 5.8 mph - N/A   Mostly Cloudy
2:50 PM 48 °F - 41 °F 69% 29.89 in 19 mi West 4.6 mph - -   Scattered Clouds
2:50 PM 48.2 °F - 41.0 °F 76% 29.86 in 6.2 mi West 4.6 mph - N/A   Mostly Cloudy
3:50 PM 46.4 °F 45.2 °F 41.0 °F 81% 29.89 in 6.2 mi SSW 3.5 mph - N/A   Mostly Cloudy
4:50 PM 44.6 °F - 41.0 °F 87% 29.89 in 6.2 mi SW 2.3 mph - N/A   Mostly Cloudy
5:50 PM 46 °F - 43 °F 84% 29.93 in 11 mi WSW 3.5 mph - -   Mostly Cloudy
5:50 PM 46.4 °F 45.2 °F 42.8 °F 87% 29.92 in 6.2 mi WSW 3.5 mph - N/A   Mostly Cloudy
6:50 PM 44.6 °F - 42.8 °F 93% 29.92 in 6.2 mi SW 2.3 mph - N/A   Mostly Cloudy
7:50 PM 44.6 °F - 42.8 °F 93% 29.92 in 5.6 mi SW 2.3 mph - N/A   Haze
8:50 PM 45 °F - 43 °F 92% 29.94 in 4 mi SSW 4.6 mph - -   Haze
8:50 PM 44.6 °F 42.2 °F 42.8 °F 93% 29.92 in 3.7 mi SSW 4.6 mph - N/A   Haze
9:50 PM 44.6 °F 43.1 °F 42.8 °F 93% 29.92 in 5.6 mi SW 3.5 mph - N/A   Haze
10:50 PM 44.6 °F - 42.8 °F 93% 29.92 in 6.2 mi SSW 1.2 mph - N/A   Mostly Cloudy
11:50 PM 43 °F - 42 °F 94% 29.92 in 7 mi South 3.5 mph - -   Scattered Clouds
11:50 PM 42.8 °F 41.1 °F 42.8 °F 100% 29.89 in 6.2 mi South 3.5 mph - N/A   Mostly Cloudy